Total_Precipitation_Accumulation
0.65 0.78 0.77 0.63 0.57 0.55 0.52 0.60 0.82 0.83 0.83 0.94 1.14 1.26 1.19 1.18 1.14 1.05 0.87 0.71 0.60 0.52 0.49 0.47 0.48 0.50 0.54 0.57 0.61 0.73 0.84 0.89 0.96 1.11 1.32 1.56 1.77 1.97
0.71 0.76 0.83 0.82 0.74 0.70 0.67 0.71 0.87 0.92 0.96 1.00 1.20 1.29 1.14 0.96 0.98 1.02 0.89 0.81 0.68 0.57 0.50 0.50 0.50 0.50 0.47 0.47 0.46 0.46 0.50 0.54 0.59 0.67 0.75 0.87 1.04 1.32
0.88 0.87 0.86 0.95 1.00 0.92 0.90 0.91 0.96 1.05 1.09 1.07 1.20 1.23 1.10 0.90 0.85 0.89 0.88 0.88 0.76 0.69 0.57 0.51 0.49 0.48 0.46 0.46 0.46 0.45 0.43 0.42 0.41 0.44 0.48 0.52 0.57 0.63
1.01 1.15 1.15 1.09 1.05 0.99 1.00 1.02 1.09 1.24 1.27 1.23 1.27 1.31 1.21 1.06 0.96 0.87 0.75 0.73 0.75 0.78 0.66 0.56 0.51 0.48 0.46 0.44 0.44 0.43 0.43 0.41 0.37 0.34 0.33 0.36 0.39 0.44
0.90 1.15 1.34 1.49 1.40 1.21 1.09 1.05 1.11 1.21 1.35 1.31 1.30 1.43 1.40 1.26 1.11 0.91 0.77 0.73 0.66 0.69 0.70 0.62 0.54 0.50 0.49 0.48 0.47 0.46 0.43 0.41 0.39 0.37 0.34 0.32 0.31 0.32
0.84 0.93 1.04 1.23 1.40 1.44 1.30 1.16 1.14 1.23 1.36 1.39 1.48 1.69 1.69 1.51 1.25 1.03 0.92 0.80 0.71 0.59 0.62 0.64 0.60 0.53 0.51 0.49 0.47 0.45 0.44 0.43 0.42 0.41 0.39 0.37 0.33 0.31
0.90 0.88 0.84 0.90 1.03 1.16 1.23 1.30 1.30 1.27 1.35 1.42 1.61 2.00 1.99 1.71 1.33 1.12 1.06 1.00 0.87 0.74 0.68 0.59 0.55 0.51 0.50 0.52 0.51 0.47 0.43 0.40 0.38 0.37 0.39 0.39 0.37 0.35
1.05 0.98 0.89 0.81 0.82 0.88 0.96 1.07 1.22 1.26 1.26 1.32 1.49 1.79 1.96 1.85 1.58 1.36 1.15 1.02 0.94 0.87 0.83 0.76 0.65 0.59 0.51 0.46 0.49 0.47 0.44 0.40 0.36 0.34 0.32 0.33 0.35 0.34
1.25 1.23 1.00 0.82 0.86 0.84 0.92 0.94 0.97 1.07 1.16 1.22 1.36 1.55 1.84 1.97 1.80 1.42 1.24 1.13 0.94 0.84 0.83 0.79 0.72 0.63 0.54 0.50 0.54 0.45 0.44 0.42 0.37 0.34 0.32 0.30 0.29 0.30
1.09 1.10 1.05 0.92 0.86 0.85 0.87 0.85 0.82 0.82 0.87 0.93 1.03 1.24 1.51 1.82 1.96 1.71 1.50 1.34 1.13 0.97 0.82 0.79 0.78 0.70 0.60 0.54 0.58 0.50 0.42 0.41 0.40 0.35 0.33 0.32 0.32 0.31
0.90 0.92 0.94 0.87 0.81 0.69 0.69 0.71 0.71 0.71 0.69 0.71 0.78 0.93 1.16 1.46 1.78 1.89 1.61 1.28 1.12 0.94 0.81 0.73 0.69 0.73 0.71 0.59 0.57 0.59 0.50 0.44 0.42 0.41 0.38 0.36 0.33 0.33
1.01 1.03 1.00 0.88 0.78 0.62 0.61 0.67 0.66 0.63 0.65 0.64 0.62 0.66 0.78 1.02 1.37 1.54 1.55 1.27 1.03 0.92 0.69 0.62 0.59 0.61 0.66 0.58 0.46 0.46 0.46 0.49 0.48 0.44 0.42 0.40 0.39 0.30
1.10 1.17 1.12 0.95 0.72 0.58 0.53 0.53 0.49 0.51 0.57 0.60 0.60 0.63 0.75 0.91 1.07 1.28 1.42 1.33 1.08 0.82 0.65 0.61 0.54 0.54 0.56 0.52 0.48 0.44 0.41 0.42 0.42 0.44 0.45 0.46 0.46 0.39
0.97 1.11 1.13 0.97 0.75 0.60 0.49 0.43 0.40 0.37 0.42 0.48 0.51 0.52 0.58 0.70 0.88 1.13 1.34 1.35 1.21 0.96 0.79 0.76 0.69 0.60 0.54 0.47 0.43 0.43 0.42 0.41 0.40 0.39 0.40 0.49 0.48 0.49
0.76 1.01 1.11 0.99 0.85 0.71 0.61 0.54 0.44 0.37 0.39 0.41 0.39 0.39 0.43 0.54 0.75 1.08 1.43 1.55 1.45 1.20 1.01 0.86 0.77 0.72 0.71 0.57 0.42 0.37 0.40 0.41 0.38 0.39 0.41 0.45 0.45 0.45
0.70 0.85 0.98 1.01 0.92 0.84 0.74 0.60 0.48 0.43 0.41 0.42 0.42 0.45 0.53 0.64 0.76 0.91 1.22 1.47 1.49 1.31 1.12 0.98 0.88 0.86 0.80 0.66 0.52 0.38 0.33 0.36 0.37 0.38 0.44 0.46 0.50 0.50
0.69 0.78 0.92 1.02 1.03 0.99 0.95 0.84 0.73 0.65 0.58 0.55 0.60 0.61 0.66 0.71 0.73 0.82 1.03 1.23 1.23 1.11 1.01 0.99 0.98 0.95 0.88 0.84 0.70 0.47 0.36 0.33 0.33 0.41 0.50 0.51 0.52 0.58
0.50 0.65 0.82 0.99 1.11 1.15 1.18 1.12 1.00 0.90 0.80 0.77 0.79 0.76 0.73 0.77 0.77 0.79 0.92 1.07 1.08 1.02 0.97 0.91 0.98 1.07 1.01 0.85 0.69 0.57 0.44 0.37 0.38 0.47 0.55 0.56 0.52 0.53
0.33 0.51 0.67 0.82 0.99 1.13 1.16 1.12 1.04 1.01 1.01 0.99 0.98 0.93 0.86 0.85 0.88 0.86 0.87 0.99 1.05 1.02 1.02 1.00 0.98 1.00 0.96 0.73 0.51 0.48 0.53 0.49 0.53 0.56 0.59 0.58 0.51 0.50
0.30 0.46 0.60 0.73 0.87 1.04 1.09 1.08 1.09 1.11 1.11 1.07 1.08 1.08 1.05 0.99 0.98 0.95 0.91 0.93 1.02 1.09 1.08 1.06 0.99 0.90 0.82 0.73 0.63 0.52 0.51 0.63 0.68 0.65 0.64 0.66 0.60 0.59
0.38 0.44 0.51 0.63 0.79 0.96 1.09 1.13 1.15 1.14 1.13 1.15 1.14 1.15 1.17 1.11 1.01 1.00 1.04 1.03 1.01 1.06 1.01 0.89 0.87 0.97 1.04 1.07 0.92 0.65 0.53 0.55 0.66 0.71 0.75 0.83 0.75 0.70
0.52 0.57 0.59 0.66 0.83 0.99 1.12 1.21 1.25 1.22 1.17 1.18 1.18 1.19 1.18 1.16 1.06 1.05 1.13 1.11 0.99 0.93 0.93 0.96 1.11 1.26 1.24 1.13 0.88 0.69 0.63 0.65 0.68 0.72 0.76 0.80 0.79 0.70
0.66 0.63 0.58 0.62 0.78 0.95 1.05 1.16 1.25 1.23 1.16 1.13 1.19 1.24 1.17 1.12 1.07 1.08 1.12 1.17 1.13 1.06 1.10 1.13 1.19 1.23 1.19 1.15 1.06 0.90 0.76 0.75 0.77 0.72 0.61 0.57 0.56 0.55